Flag for Nepal Weather past 2 weeks in Pokhara, Nepal

Now
70 °F

Broken clouds.


Feels Like: 70 °F
Forecast: 60 / 84 °F
Wind: 3 mph from East

Location: Kathmandu Airport

Current Time: Sep 20, 2014 at 4:13:39 PM

Latest Report: Sep 20, 2014 at 3:35 PM


Visibility: 4 mi

Pressure: 29.86 "Hg

Humidity: 94%

Dew point: 68 °F

Location of PokharaLocation

Historic Weather in Pokhara — Graph

°F

Pokhara temperature yesterday

Maximum temperature yesterday: 84 °F (at 1:35 PM)
Minimum temperature yesterday: 66 °F (at 12:35 AM)
Average temperature yesterday: 73 °F

Past Weeks' High & Low Weather Summary

 TemperatureHumidityPressure
High86 °F (Sep 18, 12:35 PM)100% (Sep 6, 10:35 PM)30.04 "Hg (Sep 6, 10:35 PM)
Low66 °F (Sep 10, 3:35 AM)52% (Sep 18, 12:35 PM)29.77 "Hg (Sep 5, 2:35 PM)
Average72 °F86%29.92 "Hg
* Reported Sep 5 2:35 PM — Sep 20 2:35 PM, Pokhara, Weather by CustomWeather, © 2014

Note: Actual official high and low records may vary slightly from our data, if they occured in-between our weather recording intervals... More about our weather records

Advertising

Pokhara weather history for previous 24 hours

 ConditionsComfort  
Time TempWeatherWind HumidityBarometerVisibility
2:35 PM
Sep 20
70 °FRain. More clouds than sun.5 mph94%29.89 "Hg1 mi
1:35 PM68 °FLots of rain. More clouds than sun.3 mph100%29.92 "Hg1 mi
11:35 AM77 °FRain. Broken clouds.No wind69%29.92 "Hg4 mi
10:35 AM77 °FBroken clouds.No wind69%29.95 "Hg4 mi
9:35 AM73 °FBroken clouds.No wind78%29.95 "Hg4 mi
8:35 AM72 °FMore clouds than sun.No wind88%29.95 "Hg4 mi
7:35 AM70 °FMore clouds than sun.No wind94%29.95 "Hg4 mi
6:35 AM68 °FBroken clouds.No wind94%29.92 "Hg4 mi
5:35 AM68 °FLight rain. Partly cloudy.No wind94%29.92 "Hg4 mi
4:35 AM68 °FPartly cloudy.5 mph94%29.92 "Hg4 mi
3:35 AM68 °FLight rain. Partly cloudy.No wind94%29.92 "Hg4 mi
2:35 AM70 °FPartly cloudy.5 mph94%29.95 "Hg4 mi
1:35 AM70 °FPartly cloudy.No wind94%29.95 "Hg4 mi
12:35 AM70 °FPartly cloudy.3 mph94%29.98 "Hg4 mi
11:35 PM
Sep 19
70 °FPartly cloudy.5 mph94%29.98 "Hg4 mi
10:35 PM70 °FPartly cloudy.No wind94%30.01 "Hg4 mi
9:35 PM70 °FThunderstorms. Partly cloudy.3 mph94%30.01 "Hg4 mi
8:35 PM70 °FThunderstorms. Partly cloudy.3 mph94%29.98 "Hg4 mi
7:35 PM72 °FThunderstorms. Partly cloudy.No wind88%29.95 "Hg4 mi
6:35 PM70 °FThunderstorms. More clouds than sun.3 mph94%29.92 "Hg2 mi
5:35 PM68 °FStrong thunderstorms. More clouds than sun.13 mph100%29.89 "Hg1 mi
4:35 PM77 °FRain. Broken clouds.9 mph74%29.86 "Hg2 mi
Weather by CustomWeather, © 2014

See weather overviewHow to use our weather pages